Port Heiden, AK

5:47 AM AKDT on September 22, 2017 (GMT -0800)
Port Heiden

Weather History for PAPH - November, 2012

Change the Weather History Date:

Tuesday, November 13, 2012

  Actual Average Record
Temperature  
Mean Temperature 44 °F -  
Max Temperature 50 °F 37 °F 53 °F (2014)
Min Temperature 39 °F 27 °F 6 °F (2005)
Degree Days  
Heating Degree Days 20    
Moisture  
Dew Point 35 °F    
Average Humidity 67    
Maximum Humidity 82    
Minimum Humidity 53    
Precipitation  
Precipitation 0.00 in - - ()
Sea Level Pressure  
Sea Level Pressure 29.49 in    
Wind  
Wind Speed 25 mph (SSE)    
Max Wind Speed 44 mph    
Max Gust Speed 54 mph    
Visibility 10 miles    
Events      
Averages and records for this station are not official NWS values.
T = Trace of Precipitation, MM = Missing Value Source: NWS Daily Summary

Daily Weather History Graph

Daily Weather History Graph

Search for Another Location

Airport or City:

Trip Planner

Search our weather history database for the weather conditions in past years. The results will help you decide how hot, cold, wet, or windy it might be!

Date:

Astronomy

Nov. 13, 2012 Rise Set
Actual Time 9:13 AM AKST 5:24 PM AKST
Civil Twilight 8:29 AM AKST 6:07 PM AKST
Nautical Twilight 7:42 AM AKST 6:54 PM AKST
Astronomical Twilight 6:57 AM AKST 7:39 PM AKST
Moon 9:10 AM AKST (11/13) 5:18 PM AKST (11/13)
Length of Visible Light 9h 37m
Length of Day
8h 11m
Waning Crescent, 0% of the Moon is Illuminated
Nov 13
Waning Crescent
Nov 13
New
Nov 20
First Quarter
Nov 28
Full
Dec 6
Last Quarter

Hourly Weather History & Observations

Time (AKST) Temp. Windchill Dew Point Humidity Pressure Visibility Wind Dir Wind Speed Gust Speed Precip Events Conditions
12:16 AM 44.6 °F 37.4 °F 28.4 °F 53% 29.82 in 10.0 mi SSE 16.1 mph - N/A   Mostly Cloudy
12:36 AM 46.4 °F 38.1 °F 30.2 °F 53% 29.79 in 10.0 mi SSE 24.2 mph - N/A   Overcast
12:56 AM 46.4 °F 39.0 °F 30.2 °F 53% 29.79 in 10.0 mi SSE 19.6 mph - N/A   Overcast
1:16 AM 46.4 °F 39.0 °F 30.2 °F 53% 29.79 in 10.0 mi SE 19.6 mph - N/A   Overcast
1:36 AM 46.4 °F 38.1 °F 30.2 °F 53% 29.77 in 10.0 mi SE 24.2 mph 29.9 mph N/A   Overcast
1:56 AM 46.4 °F 37.7 °F 32.0 °F 57% 29.77 in 10.0 mi SSE 26.5 mph - N/A   Overcast
2:16 AM - - - N/A% 29.75 in 10.0 mi SSE 32.2 mph 38.0 mph N/A   Overcast
2:36 AM - - - N/A% 29.73 in 10.0 mi SE 32.2 mph 46.0 mph N/A   Overcast
2:56 AM - - - N/A% 29.72 in 10.0 mi SE 33.4 mph 39.1 mph N/A   Overcast
3:16 AM - - - N/A% 29.71 in 10.0 mi SE 33.4 mph 42.6 mph N/A   Overcast
3:36 AM - - - N/A% 29.71 in 10.0 mi SE 33.4 mph 39.1 mph N/A   Overcast
3:56 AM 42.8 °F 31.9 °F 35.6 °F 76% 29.70 in 10.0 mi SSE 32.2 mph 40.3 mph N/A   Overcast
4:16 AM - - - N/A% 29.66 in 10.0 mi SSE 35.7 mph 46.0 mph N/A   Overcast
4:36 AM - - - N/A% 29.66 in 10.0 mi SSE 29.9 mph 50.6 mph N/A   Overcast
4:56 AM - - - N/A% 29.65 in 10.0 mi SE 38.0 mph 50.6 mph N/A   Overcast
5:16 AM - - - N/A% 29.62 in 10.0 mi SE 38.0 mph 47.2 mph N/A   Overcast
5:36 AM - - - N/A% 29.61 in 10.0 mi SE 38.0 mph 49.5 mph N/A   Mostly Cloudy
5:56 AM - - - N/A% 29.61 in 10.0 mi SE 35.7 mph 40.3 mph N/A   Mostly Cloudy
6:16 AM - - - N/A% 29.56 in 10.0 mi SE 33.4 mph 43.7 mph N/A   Overcast
6:36 AM - - - N/A% 29.56 in 10.0 mi SE 36.8 mph 47.2 mph N/A   Scattered Clouds
6:56 AM - - - N/A% 29.53 in 10.0 mi SE 33.4 mph 40.3 mph N/A   Clear
7:16 AM - - - N/A% 29.52 in 10.0 mi SE 36.8 mph 47.2 mph N/A   Mostly Cloudy
7:36 AM - - - N/A% 29.51 in 10.0 mi SSE 35.7 mph 50.6 mph N/A   Scattered Clouds
7:56 AM - - - N/A% 29.50 in 10.0 mi SE 32.2 mph 44.9 mph N/A   Scattered Clouds
8:16 AM 44.6 °F 34.7 °F 35.6 °F 71% 29.50 in 10.0 mi SE 29.9 mph 39.1 mph N/A   Mostly Cloudy
8:36 AM - - - N/A% 29.47 in 10.0 mi SE 34.5 mph 40.3 mph N/A   Overcast
8:56 AM - - - N/A% 29.46 in 10.0 mi SE 27.6 mph 42.6 mph N/A   Overcast
9:16 AM - - - N/A% 29.45 in 10.0 mi SE 40.3 mph 43.7 mph N/A   Overcast
9:36 AM - - - N/A% 29.42 in 10.0 mi SE 41.4 mph 50.6 mph N/A   Overcast
9:56 AM - - - N/A% 29.42 in 10.0 mi SSE 40.3 mph 48.3 mph N/A   Overcast
10:16 AM - - - N/A% 29.40 in 10.0 mi SSE 43.7 mph 50.6 mph N/A   Mostly Cloudy
10:36 AM - - - N/A% 29.40 in 10.0 mi SSE 38.0 mph 50.6 mph N/A   Mostly Cloudy
10:56 AM - - - N/A% 29.38 in 10.0 mi SSE 39.1 mph 54.1 mph N/A   Overcast
11:16 AM - - - N/A% 29.38 in 10.0 mi SSE 36.8 mph 44.9 mph N/A   Mostly Cloudy
11:36 AM - - - N/A% 29.39 in 10.0 mi SSE 35.7 mph 48.3 mph N/A   Mostly Cloudy
11:56 AM - - - N/A% 29.39 in 10.0 mi SSE 32.2 mph 40.3 mph N/A   Overcast
12:16 PM - - - N/A% 29.40 in 10.0 mi SSE 27.6 mph 40.3 mph N/A   Scattered Clouds
12:36 PM 48.2 °F - 41.0 °F 76% 29.42 in 10.0 mi SSE 26.5 mph 33.4 mph N/A   Partly Cloudy
12:56 PM 46.4 °F 40.1 °F 41.0 °F 81% 29.43 in 10.0 mi South 15.0 mph 18.4 mph N/A   Mostly Cloudy
1:16 PM 48.2 °F - 42.8 °F 82% 29.43 in 10.0 mi South 16.1 mph - N/A   Overcast
1:36 PM - - - N/A% 29.43 in 10.0 mi South 17.3 mph - N/A   Overcast
1:56 PM 48.2 °F - 41.0 °F 76% 29.44 in 10.0 mi SSE 15.0 mph - N/A   Overcast
2:16 PM 48.2 °F - 42.8 °F 82% 29.43 in 10.0 mi SSE 18.4 mph - N/A   Overcast
2:36 PM 48.2 °F - 41.0 °F 76% 29.44 in 10.0 mi South 13.8 mph 21.9 mph N/A   Mostly Cloudy
2:56 PM - - - N/A% 29.43 in 10.0 mi South 12.7 mph - N/A   Mostly Cloudy
3:16 PM 50.0 °F - 42.8 °F 76% 29.44 in 10.0 mi South 10.4 mph - N/A   Overcast
3:36 PM 48.2 °F - 41.0 °F 76% 29.44 in 10.0 mi South 11.5 mph 16.1 mph N/A   Mostly Cloudy
3:56 PM - - - N/A% 29.43 in 10.0 mi SE 9.2 mph - N/A   Overcast
4:16 PM 46.4 °F 40.4 °F 33.8 °F 62% 29.43 in 10.0 mi WSW 13.8 mph 24.2 mph N/A   Overcast
4:36 PM 46.4 °F 43.5 °F 35.6 °F 66% 29.43 in 10.0 mi SE 5.8 mph - N/A   Overcast
4:56 PM 44.6 °F 39.2 °F 33.8 °F 66% 29.43 in 10.0 mi South 10.4 mph - N/A   Overcast
5:16 PM 42.8 °F 36.2 °F 30.2 °F 61% 29.43 in 10.0 mi South 12.7 mph - N/A   Partly Cloudy
5:36 PM 39.2 °F 32.0 °F 26.6 °F 61% 29.43 in 10.0 mi SSE 11.5 mph - N/A   Clear
5:56 PM - - - N/A% 29.42 in 10.0 mi South 15.0 mph - N/A   Clear
6:16 PM 41.0 °F 32.8 °F 26.6 °F 57% 29.42 in 10.0 mi SSE 16.1 mph 20.7 mph N/A   Clear
6:36 PM - - - N/A% 29.40 in 10.0 mi SSE 13.8 mph - N/A   Clear
6:56 PM - - - N/A% 29.40 in 10.0 mi SSE 15.0 mph - N/A   Clear
7:16 PM - - - N/A% 29.40 in 10.0 mi SSE 16.1 mph - N/A   Clear
7:36 PM - - - N/A% 29.39 in 10.0 mi SE 17.3 mph - N/A   Clear
7:56 PM - - - N/A% 29.38 in 10.0 mi SSE 15.0 mph - N/A   Clear
8:16 PM - - - N/A% 29.38 in 10.0 mi SE 15.0 mph - N/A   Clear
8:36 PM - - - N/A% 29.37 in 10.0 mi SE 18.4 mph - N/A   Clear
8:56 PM - - - N/A% 29.36 in 10.0 mi SSE 15.0 mph - N/A   Clear
9:16 PM - - - N/A% 29.36 in 10.0 mi SSE 21.9 mph 27.6 mph N/A   Clear
9:36 PM - - - N/A% 29.36 in 10.0 mi SSE 19.6 mph - N/A   Clear
9:56 PM - - - N/A% 29.35 in 10.0 mi SSE 18.4 mph - N/A   Clear
10:16 PM - - - N/A% 29.34 in 10.0 mi SSE 20.7 mph 26.5 mph N/A   Clear
10:36 PM - - - N/A% 29.34 in 10.0 mi SSE 19.6 mph - N/A   Mostly Cloudy
10:56 PM - - - N/A% 29.33 in 10.0 mi SSE 20.7 mph - N/A   Mostly Cloudy
11:16 PM - - - N/A% 29.33 in 10.0 mi SE 21.9 mph - N/A   Mostly Cloudy
11:36 PM - - - N/A% 29.32 in 10.0 mi SE 21.9 mph 26.5 mph N/A   Mostly Cloudy
11:56 PM - - - N/A% 29.32 in 10.0 mi SE 20.7 mph 24.2 mph N/A   Mostly Cloudy